Location: *
(45.4590°N, 16.3650°E)
Time: 20:48:43
(UTC+00:00)

Cosmos 1295 Rocket - Pass Details

Date: 17 January 2020
Orbit: 943 x 994 km, 82.9° (Epoch: 16 February)

Event Time Altitude Azimuth Distance (km) Brightness Sun altitude
Rises 17:14:38 0° 180° (S) 3,695 7.7 -16.3°
Reaches altitude 10° 17:17:08 10° 179° (S) 2,752 7.0 -16.8°
Maximum altitude 17:23:27 75° 95° (E) 1,032 4.4 -17.8°
Drops below altitude 10° 17:29:47 10° 12° (NNE) 2,762 6.6 -18.9°
Sets 17:32:18 0° 10° (N) 3,710 7.3 -19.4°
